Content
SEND FEEDBACK

Daily
Averages
Monthly
Summary
United States of America

ST. LOUIS, MISSOURI


Home > North America > United States > Missouri
Elevation: 535 feet     Latitude: 38 45N     Longitude: 090 22W

WEATHER
 
SELECT A DAY
Number of Records: 201,199;   Date Range: 1/1/95 - 12/17/14
 
SHARE

PRINT THIS DATA

[ ← Previous Day ]
WEATHER ALMANAC - JULY 3, 2013
[ Next Day → ]
[ °C ]   °F
Weather ElementAverageHighLow
Temperature72.7 °F82 °F (3:54 pm)62.1 °F (2:54 am)
Dewpoint59.4 °F62.1 °F (7:54 pm)57.9 °F (5:54 am)
Humidity65 %93 % (2:54 am)44 % (4:54 pm)
Barometer30.03 in30.08 in (8:54 am)29.99 in (5:54 pm)
Wind Speed2.9 mph6.9 mph (3:54 pm)
Weather ElementAverage
Visibility10 mi
Wind DirectionESE (97.8 °)

Weather ElementTotal
Precipitation---
Cooling Degree Days7.1 (Base 65)
Growing Degree Days22.1 (Base 50)
Averaged from 23 records on July 3, 2013
WEATHER CONDITIONS BREAKOUT
WIND DIRECTION BREAKOUT
WEATHER BY HOUR - JULY 3, 2013
[ °C ]   °F
Local TimeTemperatureDewpointHumidityBarometerVisibilityWind DirectionWind SpeedGust SpeedPrecipitationEventsConditions
1:54 AM63.0 °F60.1 °F90 %30.02 in10.0 miCalmOvercast
2:54 AM62.1 °F60.1 °F93 %30.02 in9.0 miCalmClear
3:54 AM62.1 °F59.0 °F90 %30.03 in10.0 miCalmMostly Cloudy
4:54 AM62.1 °F60.1 °F93 %30.04 in10.0 miCalmOvercast
5:54 AM62.1 °F57.9 °F86 %30.05 in10.0 miWest (280°)3.5 mphMostly Cloudy
6:54 AM63.0 °F60.1 °F90 %30.06 in10.0 miCalmMostly Cloudy
7:54 AM64.9 °F57.9 °F78 %30.06 in10.0 miCalmMostly Cloudy
8:54 AM69.1 °F60.1 °F73 %30.08 in10.0 miCalmScattered Clouds
9:54 AM73.0 °F59.0 °F61 %30.07 in10.0 miSW (230°)5.8 mphScattered Clouds
10:54 AM75.0 °F59.0 °F57 %30.06 in10.0 miCalmScattered Clouds
11:54 AM78.1 °F59.0 °F52 %30.06 in10.0 miCalmClear
12:54 PM80.1 °F60.1 °F50 %30.05 in10.0 miSSW (210°)5.8 mphScattered Clouds
1:54 PM79.0 °F59.0 °F50 %30.04 in10.0 miCalmPartly Cloudy
2:54 PM81.0 °F57.9 °F45 %30.02 in10.0 miSouth (190°)4.6 mphClear
3:54 PM82.0 °F59.0 °F45 %30.02 in10.0 miSSW (200°)6.9 mphScattered Clouds
4:54 PM82.0 °F57.9 °F44 %30.00 in10.0 miCalmScattered Clouds
5:54 PM82.0 °F59.0 °F45 %29.99 in10.0 miSSW (200°)6.9 mphScattered Clouds
6:54 PM80.1 °F61.0 °F52 %29.99 in10.0 miSSE (150°)4.6 mphScattered Clouds
7:54 PM78.1 °F62.1 °F58 %30.01 in10.0 miSSE (150°)5.8 mphClear
8:54 PM75.0 °F61.0 °F62 %30.01 in10.0 miSSE (150°)5.8 mphClear
9:54 PM73.9 °F59.0 °F59 %30.03 in10.0 miSouth (170°)6.9 mphClear
10:54 PM73.0 °F59.0 °F61 %30.04 in10.0 miSSE (160°)5.8 mphClear
11:54 PM72.0 °F57.9 °F61 %30.04 in10.0 miSSE (160°)4.6 mphClear
Hourly data recorded from KSUS, located miles away from St. Louis, Missouri







STORIES FROM OUR PARTNERS